CW6037 Weather Reports


time (UTC)temp
F
wind
direction
speed
knots
gust
knots
rain 1hr
in
rain 24hr
in
rain mn
in
humidity
%
barometer
mb
20181019031008 31 288 0.0 0.0 0.00 0.01 0.01 93 1026.9
20181019030456 31 288 0.0 0.0 0.00 0.01 0.01 93 1026.9
20181019025947 31 288 0.0 0.0 0.00 0.01 0.01 93 1026.9
20181019025434 31 288 0.0 0.0 0.00 0.01 0.01 93 1026.9
20181019024921 31 288 0.0 0.0 0.00 0.01 0.01 93 1026.9
20181019024337 31 288 0.0 0.0 0.00 0.01 0.01 93 1026.9
20181019023754 31 288 0.0 0.0 0.00 0.01 0.01 93 1027.0
20181019023230 31 288 0.0 0.0 0.00 0.01 0.01 92 1027.0
20181019022726 31 288 0.0 0.0 0.00 0.01 0.01 92 1027.1
20181019022217 32 288 0.0 0.0 0.00 0.01 0.01 92 1027.1
20181019021710 32 288 0.0 0.0 0.00 0.01 0.01 92 1027.1
20181019021200 32 288 0.0 0.0 0.00 0.01 0.01 92 1027.1
20181019020658 32 288 0.0 0.0 0.00 0.01 0.01 92 1027.1
20181019020150 32 288 0.0 0.0 0.00 0.01 0.01 92 1027.1
20181019015621 32 288 0.0 0.0 0.00 0.01 0.01 92 1027.0
20181019015116 33 288 0.0 0.0 0.00 0.01 0.01 92 1027.1
20181019014604 33 288 0.0 0.0 0.00 0.01 0.01 92 1027.1
20181019014057 33 288 0.0 0.0 0.00 0.01 0.01 91 1027.2
20181019013555 33 288 0.0 0.0 0.00 0.01 0.01 91 1027.2
20181019013038 33 288 0.0 0.0 0.00 0.01 0.01 91 1027.2
20181019012530 33 288 0.0 0.0 0.00 0.01 0.01 91 1027.9
20181019012024 33 288 0.0 0.0 0.00 0.01 0.01 91 1027.3
20181019011510 33 288 0.0 0.9 0.00 0.01 0.01 91 1027.3
20181019011005 34 288 0.0 0.9 0.00 0.01 0.01 91 1027.3
20181019010504 34 288 0.0 0.9 0.00 0.01 0.01 90 1027.3
20181019010006 34 288 0.0 0.9 0.00 0.01 0.01 90 1027.3
20181019005432 34 288 0.0 0.9 0.00 0.01 0.01 90 1027.4
20181019004922 34 288 0.0 0.0 0.00 0.01 0.01 89 1027.4
20181019004417 34 288 0.0 0.9 0.00 0.01 0.01 89 1027.2
20181019003920 34 288 0.0 0.9 0.00 0.01 0.01 89 1027.2
20181019003400 35 288 0.0 0.0 0.00 0.01 0.01 89 1027.2
20181019002855 35 288 0.0 0.0 0.00 0.01 0.01 89 1027.2
20181019002342 35 288 0.0 0.0 0.00 0.01 0.01 88 1027.2
20181019001832 35 288 0.0 0.0 0.00 0.01 0.01 87 1027.2
20181019001320 35 288 0.0 0.0 0.00 0.01 0.01 87 1027.2
20181019000733 35 288 0.0 0.0 0.00 0.01 0.01 86 1027.3
20181019000226 35 288 0.0 0.9 0.00 0.01 0.01 86 1027.3
20181018235716 36 288 0.0 0.9 0.00 0.01 0.01 86 1027.2
20181018235206 36 288 0.0 0.9 0.00 0.01 0.01 85 1027.2
20181018234702 36 288 0.0 0.9 0.00 0.01 0.01 84 1027.2
20181018234157 36 288 0.0 0.9 0.00 0.01 0.01 83 1027.2
20181018233647 37 288 0.0 0.9 0.00 0.01 0.01 83 1027.2
20181018233138 37 288 0.0 0.9 0.00 0.01 0.01 82 1027.3
20181018232639 37 288 0.0 0.0 0.00 0.01 0.01 81 1027.4
20181018232133 37 288 0.0 0.0 0.00 0.01 0.01 80 1027.4
20181018231606 38 288 0.0 1.7 0.00 0.01 0.01 79 1027.4
20181018231102 38 288 0.0 1.7 0.00 0.01 0.01 78 1027.4
20181018230545 38 288 0.0 0.0 0.00 0.01 0.01 77 1027.4
20181018230029 39 288 0.0 0.9 0.00 0.01 0.01 76 1027.4
20181018225530 39 288 0.0 0.9 0.00 0.01 0.01 74 1027.5
20181018225020 40 288 0.0 0.9 0.00 0.01 0.01 73 1027.5
20181018224436 40 288 0.0 0.9 0.00 0.01 0.01 73 1027.3
20181018223932 41 288 0.0 0.9 0.00 0.01 0.01 71 1027.4
20181018223418 41 288 0.0 0.9 0.00 0.01 0.01 69 1027.4
20181018222856 42 288 0.0 0.9 0.00 0.01 0.01 67 1027.4
20181018222402 42 288 0.0 0.0 0.00 0.01 0.01 67 1027.5
20181018221848 43 288 0.0 0.9 0.00 0.01 0.01 65 1027.5
20181018221343 43 288 0.0 0.9 0.00 0.01 0.01 61 1027.7
20181018220830 44 288 0.0 1.7 0.00 0.01 0.01 59 1027.8
20181018220327 44 288 1.7 8.7 0.00 0.01 0.01 58 1027.8
20181018215818 44 287 1.7 8.7 0.00 0.01 0.01 56 1027.4
20181018215318 45 251 1.7 7.0 0.00 0.01 0.01 57 1027.4
20181018214816 45 295 1.7 7.0 0.00 0.01 0.01 54 1027.5
20181018214314 46 256 2.6 7.0 0.00 0.01 0.01 53 1027.5
20181018213811 46 246 3.5 7.8 0.00 0.01 0.01 52 1027.5
20181018213311 47 267 2.6 7.8 0.00 0.01 0.01 51 1027.6
20181018212809 47 229 2.6 7.0 0.00 0.01 0.01 52 1027.7
20181018212307 47 254 3.5 9.6 0.00 0.01 0.01 50 1027.7
20181018211806 47 271 4.3 9.6 0.00 0.01 0.01 51 1027.7
20181018211307 48 268 3.5 8.7 0.00 0.01 0.01 50 1027.6
20181018210805 47 260 4.3 9.6 0.00 0.01 0.01 55 1027.5
20181018210306 47 294 5.2 10.4 0.00 0.01 0.01 49 1027.5
20181018205806 48 250 5.2 11.3 0.00 0.01 0.01 50 1027.8
20181018205301 48 267 4.3 11.3 0.00 0.01 0.01 48 1027.9
20181018204759 49 309 3.5 10.4 0.00 0.01 0.01 48 1027.9
20181018204258 49 249 3.5 9.6 0.00 0.01 0.01 49 1027.7
20181018203757 50 240 2.6 9.6 0.00 0.01 0.01 46 1027.7
20181018203253 50 318 0.9 6.1 0.00 0.01 0.01 49 1027.7
20181018202754 49 293 2.6 6.1 0.00 0.01 0.01 51 1027.8
20181018202237 49 248 3.5 8.7 0.00 0.01 0.01 49 1027.7
20181018201734 48 317 5.2 11.3 0.00 0.01 0.01 48 1027.7
20181018201236 48 292 5.2 11.3 0.00 0.01 0.01 44 1027.7
20181018200731 49 250 4.3 9.6 0.00 0.01 0.01 46 1027.7
20181018200228 48 237 5.2 10.4 0.00 0.01 0.01 47 1027.7
20181018195729 49 5 6.1 14.8 0.00 0.02 0.01 45 1027.9
20181018195227 49 253 7.0 14.8 0.00 0.02 0.01 44 1027.9
20181018194729 50 242 4.3 10.4 0.00 0.02 0.01 41 1028.1
20181018194227 50 256 2.6 9.6 0.00 0.02 0.01 47 1028.2
20181018193726 49 296 3.5 11.3 0.00 0.02 0.01 48 1028.2
20181018193223 49 287 4.3 11.3 0.00 0.02 0.01 49 1028.1
20181018192726 49 109 5.2 13.0 0.00 0.02 0.01 47 1028.1
20181018192224 49 307 5.2 13.0 0.00 0.02 0.01 47 1028.1
20181018191727 49 326 5.2 13.0 0.00 0.02 0.01 44 1028.1
20181018191220 49 267 5.2 11.3 0.00 0.02 0.01 43 1028.3
20181018190722 50 266 4.3 11.3 0.00 0.02 0.01 44 1028.3
20181018190219 51 234 4.3 10.4 0.00 0.02 0.01 44 1028.3
20181018185721 51 290 1.7 10.4 0.00 0.02 0.01 45 1028.4
20181018185220 51 273 0.9 5.2 0.00 0.02 0.01 45 1028.4
20181018184719 51 341 2.6 8.7 0.00 0.02 0.01 47 1028.3
20181018184207 51 240 2.6 9.6 0.00 0.03 0.01 49 1028.4
20181018183706 50 269 2.6 9.6 0.00 0.03 0.01 44 1028.4
20181018183205 50 312 2.6 9.6 0.00 0.04 0.01 51 1028.4
20181018182700 49 0 2.6 9.6 0.00 0.04 0.01 49 1028.3
20181018182159 49 256 2.6 7.8 0.00 0.04 0.01 50 1028.3
20181018181658 48 29 3.5 10.4 0.00 0.04 0.01 51 1028.2
20181018181159 48 281 3.5 11.3 0.00 0.04 0.01 45 1028.6
20181018180658 49 275 4.3 11.3 0.00 0.04 0.01 51 1028.6
20181018180202 48 290 3.5 13.0 0.00 0.04 0.01 48 1028.6
20181018175638 48 256 4.3 15.6 0.00 0.04 0.01 49 1028.8
20181018175134 49 307 4.3 15.6 0.00 0.04 0.01 45 1028.8
20181018174634 49 288 3.5 13.0 0.00 0.04 0.01 49 1028.8
20181018174129 49 0 2.6 13.0 0.00 0.04 0.01 49 1028.9
20181018173628 49 25 1.7 10.4 0.00 0.04 0.01 49 1028.9
20181018173128 49 260 1.7 7.0 0.00 0.04 0.01 49 1028.9
20181018172628 48 334 1.7 7.0 0.00 0.04 0.01 49 1029.2
20181018172128 48 346 2.6 9.6 0.00 0.04 0.01 51 1029.2
20181018171626 47 331 5.2 14.8 0.00 0.04 0.01 54 1029.2
20181018171122 47 308 6.1 15.6 0.00 0.04 0.01 55 1028.9
20181018170619 48 275 4.3 15.6 0.00 0.04 0.01 46 1029.0
20181018170119 48 257 2.6 11.3 0.00 0.04 0.01 51 1029.1
20181018165620 48 318 2.6 8.7 0.00 0.04 0.01 53 1029.1
20181018165119 47 313 2.6 8.7 0.00 0.04 0.01 51 1029.1
20181018164617 46 330 2.6 8.7 0.00 0.04 0.01 54 1029.0
20181018164117 46 271 3.5 13.9 0.00 0.04 0.01 52 1029.1
20181018163617 45 340 4.3 20.9 0.00 0.04 0.01 56 1029.0
20181018163116 45 312 3.5 20.9 0.00 0.04 0.01 51 1029.0
20181018162616 46 297 1.7 7.0 0.00 0.04 0.01 58 1029.0
20181018162109 45 313 3.5 11.3 0.00 0.04 0.01 55 1029.0
20181018161606 45 344 3.5 11.3 0.00 0.04 0.01 56 1029.0
20181018161107 46 301 2.6 7.0 0.00 0.04 0.01 55 1029.1
20181018160605 46 28 2.6 9.6 0.00 0.04 0.01 56 1029.1
20181018160105 45 184 2.6 9.6 0.00 0.04 0.01 57 1029.0
20181018155607 45 341 2.6 9.6 0.00 0.04 0.01 59 1028.8
20181018155107 44 288 3.5 11.3 0.00 0.04 0.01 61 1028.8
20181018154606 44 311 4.3 13.0 0.01 0.04 0.01 61 1028.7
20181018154104 43 281 4.3 13.0 0.01 0.04 0.01 56 1028.8
20181018153605 44 322 2.6 8.7 0.01 0.04 0.01 60 1028.8
20181018153104 43 337 1.7 8.7 0.01 0.04 0.01 63 1028.8
20181018152605 43 77 2.6 16.5 0.01 0.04 0.01 61 1028.9
20181018152106 42 313 2.6 16.5 0.01 0.04 0.01 62 1028.8
20181018151605 42 324 2.6 10.4 0.01 0.04 0.01 62 1028.8
20181018151100 42 277 2.6 10.4 0.01 0.04 0.01 62 1028.7
20181018150559 42 325 2.6 8.7 0.01 0.04 0.01 59 1028.7
20181018150100 42 336 2.6 7.8 0.01 0.04 0.01 59 1028.7
20181018145558 42 313 2.6 11.3 0.01 0.04 0.01 61 1028.7
20181018145059 42 37 3.5 12.2 0.01 0.04 0.01 60 1028.7
20181018144601 41 296 3.5 12.2 0.00 0.03 0.00 59 1028.7
20181018144054 41 332 2.6 12.2 0.00 0.03 0.00 61 1028.4
20181018143600 41 285 3.5 10.4 0.00 0.03 0.00 63 1028.4
20181018143047 40 29 3.5 10.4 0.00 0.03 0.00 63 1028.4
20181018142557 40 323 3.5 9.6 0.00 0.03 0.00 65 1028.2
20181018142051 40 270 3.5 12.2 0.00 0.03 0.00 63 1028.1
20181018141539 40 279 3.5 12.2 0.00 0.03 0.00 63 1028.4
20181018141030 39 255 3.5 11.3 0.00 0.03 0.00 65 1028.2
20181018140513 39 24 3.5 12.2 0.00 0.03 0.00 66 1028.2
20181018140014 39 15 3.5 12.2 0.00 0.03 0.00 67 1028.2
20181018135515 39 287 2.6 11.3 0.00 0.03 0.00 68 1027.6
20181018135011 38 313 2.6 9.6 0.00 0.03 0.00 69 1027.6
20181018134512 38 306 4.3 10.4 0.00 0.03 0.00 67 1027.6
20181018134006 38 32 4.3 13.0 0.00 0.03 0.00 68 1027.5
20181018133504 38 334 4.3 14.8 0.00 0.03 0.00 68 1027.5
20181018133001 38 330 3.5 14.8 0.00 0.03 0.00 72 1027.4
20181018132501 38 336 4.3 13.0 0.00 0.03 0.00 73 1027.3
20181018132002 38 309 5.2 13.9 0.00 0.03 0.00 72 1027.3
20181018131503 37 90 4.3 13.9 0.00 0.03 0.00 72 1027.3
20181018131003 37 257 2.6 12.2 0.00 0.03 0.00 75 1027.3
20181018130502 37 310 1.7 8.7 0.00 0.03 0.00 77 1027.3
20181018130001 37 245 2.6 7.8 0.00 0.03 0.00 76 1027.1
20181018125456 36 287 3.5 11.3 0.00 0.03 0.00 76 1027.0
20181018125000 36 250 2.6 11.3 0.00 0.03 0.00 76 1027.0
20181018124500 36 280 3.5 11.3 0.00 0.03 0.00 78 1026.6
20181018123958 36 233 3.5 11.3 0.00 0.03 0.00 78 1026.6
20181018123448 36 284 2.6 11.3 0.00 0.03 0.00 78 1026.6
20181018122948 35 265 2.6 11.3 0.00 0.03 0.00 81 1026.7
20181018122453 35 313 2.6 11.3 0.00 0.03 0.00 80 1026.7
20181018121948 35 278 2.6 9.6 0.00 0.03 0.00 82 1026.7
20181018121447 35 315 2.6 9.6 0.00 0.03 0.00 82 1026.6
20181018120932 35 243 1.7 7.0 0.00 0.03 0.00 83 1026.5
20181018120428 35 281 1.7 7.8 0.00 0.03 0.00 83 1026.5
20181018115927 35 26 1.7 7.8 0.00 0.03 0.00 83 1026.5
20181018115423 35 320 0.9 5.2 0.00 0.03 0.00 82 1026.5
20181018114926 35 237 1.7 5.2 0.00 0.03 0.00 81 1026.5
20181018114422 35 270 1.7 6.1 0.00 0.03 0.00 81 1026.2
20181018113921 35 255 2.6 11.3 0.00 0.03 0.00 81 1026.2
20181018113423 35 286 2.6 11.3 0.00 0.03 0.00 80 1026.2
20181018112921 35 257 1.7 7.8 0.00 0.03 0.00 81 1026.1
20181018112417 35 291 2.6 10.4 0.00 0.03 0.00 82 1026.1
20181018111919 35 277 3.5 10.4 0.00 0.03 0.00 80 1026.1
20181018111419 35 279 2.6 9.6 0.00 0.03 0.00 82 1025.9
20181018110917 35 269 1.7 8.7 0.00 0.03 0.00 84 1025.9
20181018110401 35 300 1.7 6.1 0.00 0.03 0.00 83 1025.9
20181018105858 35 286 1.7 7.8 0.00 0.03 0.00 84 1025.6
20181018105354 35 301 1.7 7.8 0.00 0.03 0.00 85 1025.6
20181018104900 35 225 0.9 3.5 0.00 0.03 0.00 86 1025.6
20181018104353 35 269 0.9 4.3 0.00 0.03 0.00 83 1025.5
20181018103857 35 343 1.7 7.0 0.00 0.03 0.00 83 1025.5
20181018103339 35 265 1.7 7.8 0.00 0.03 0.00 84 1025.5
20181018102839 35 271 1.7 7.8 0.00 0.03 0.00 83 1025.2
20181018102328 35 248 1.7 7.8 0.00 0.03 0.00 85 1025.2
20181018101826 35 299 1.7 7.8 0.00 0.03 0.00 85 1025.2
20181018101326 35 286 1.7 11.3 0.00 0.03 0.00 85 1025.0
20181018100827 35 307 1.7 11.3 0.00 0.03 0.00 85 1025.0
20181018100321 35 305 1.7 10.4 0.00 0.03 0.00 87 1025.0
20181018095819 35 306 2.6 10.4 0.00 0.03 0.00 87 1025.0
20181018095319 35 269 2.6 9.6 0.00 0.03 0.00 87 1025.0
20181018094820 35 300 1.7 8.7 0.00 0.03 0.00 88 1025.0
20181018094320 35 291 2.6 9.6 0.00 0.03 0.00 89 1025.0
20181018093821 35 291 2.6 9.6 0.00 0.03 0.00 89 1025.0
20181018093318 36 283 1.7 8.7 0.00 0.03 0.00 88 1025.1
20181018092818 36 322 2.6 9.6 0.00 0.03 0.00 87 1024.5
20181018092320 37 61 1.7 9.6 0.00 0.03 0.00 86 1024.6
20181018091320 37 228 0.0 4.3 0.00 0.03 0.00 84 1024.0
20181018090819 37 309 0.0 1.7 0.00 0.03 0.00 83 1024.0
20181018090321 37 270 0.9 6.1 0.00 0.03 0.00 82 1024.0
20181018085815 37 270 2.6 6.1 0.00 0.03 0.00 80 1023.8
20181018085309 37 244 1.7 6.1 0.00 0.03 0.00 80 1023.8
20181018084805 37 319 1.7 7.8 0.00 0.03 0.00 80 1023.8
20181018084259 37 273 2.6 7.8 0.00 0.03 0.00 80 1023.5
20181018083759 38 279 1.7 7.8 0.00 0.03 0.00 79 1023.6
20181018083250 38 288 1.7 7.0 0.00 0.03 0.00 80 1023.6
20181018082748 38 259 2.6 8.7 0.00 0.03 0.00 79 1023.8
20181018082246 38 284 2.6 8.7 0.00 0.03 0.00 80 1023.8
20181018081740 37 329 2.6 6.1 0.00 0.03 0.00 81 1023.7
20181018081237 37 276 2.6 6.1 0.00 0.03 0.00 81 1023.5
20181018080738 38 285 3.5 7.8 0.00 0.03 0.00 81 1023.5
20181018080240 38 269 3.5 10.4 0.00 0.03 0.00 79 1023.5
20181018075739 37 348 2.6 10.4 0.00 0.03 0.00 79 1023.4
20181018075236 37 296 1.7 7.0 0.00 0.03 0.00 79 1023.4
20181018074735 37 285 1.7 7.8 0.00 0.03 0.00 81 1023.3
20181018074220 37 278 2.6 7.8 0.00 0.03 0.00 80 1023.3
20181018073718 37 241 0.9 6.1 0.00 0.03 0.00 80 1023.3
20181018073219 37 243 0.0 4.3 0.00 0.03 0.00 81 1023.3
20181018072721 37 240 0.9 6.1 0.00 0.03 0.00 83 1023.0
20181018072215 37 240 1.7 6.1 0.00 0.03 0.00 81 1023.0
20181018071712 37 243 1.7 6.1 0.00 0.03 0.00 81 1023.0
20181018071209 37 256 0.9 6.1 0.00 0.03 0.00 81 1023.0
20181018070707 36 236 0.9 3.5 0.00 0.03 0.00 81 1023.0
20181018070207 36 235 1.7 6.1 0.00 0.03 0.00 81 1023.0
20181018065647 36 251 1.7 6.1 0.00 0.03 0.00 82 1022.5
20181018065144 36 261 1.7 6.1 0.00 0.03 0.00 82 1022.5
20181018064646 36 281 1.7 8.7 0.00 0.03 0.00 83 1022.5
20181018064136 36 300 0.9 8.7 0.00 0.03 0.00 84 1022.4
20181018063638 36 268 1.7 6.1 0.00 0.03 0.00 83 1022.4
20181018063140 36 254 1.7 6.1 0.00 0.03 0.00 83 1022.4
20181018062626 36 263 0.9 5.2 0.00 0.03 0.00 83 1022.4
20181018062127 36 263 0.0 5.2 0.00 0.03 0.00 83 1022.4
20181018061629 36 284 0.0 0.9 0.00 0.03 0.00 82 1022.4
20181018061114 36 284 0.0 1.7 0.00 0.03 0.00 82 1022.4
20181018060600 36 284 0.0 2.6 0.00 0.03 0.00 82 1022.4
20181018060057 37 284 0.0 3.5 0.00 0.03 0.00 82 1022.4
20181018055600 37 293 0.9 3.5 0.00 0.03 0.00 81 1022.2
20181018055059 37 296 0.9 7.0 0.00 0.03 0.00 81 1022.2
20181018054604 37 298 1.7 7.0 0.00 0.03 0.00 80 1022.2
20181018054100 37 229 2.6 7.8 0.00 0.03 0.00 80 1022.3
20181018053558 37 265 2.6 8.7 0.00 0.03 0.00 81 1022.7
20181018053035 37 260 1.7 8.7 0.00 0.03 0.00 80 1022.3
20181018052531 37 254 0.9 5.2 0.00 0.03 0.00 82 1022.1
20181018052019 37 260 0.9 5.2 0.00 0.03 0.00 80 1022.2
20181018051503 37 272 0.9 3.5 0.00 0.03 0.00 82 1022.2
20181018050958 37 298 0.9 7.0 0.00 0.03 0.00 83 1022.1
20181018050457 37 299 0.9 7.0 0.00 0.03 0.00 83 1022.1
20181018045957 38 289 0.9 6.1 0.00 0.03 0.00 83 1022.0
20181018045440 38 283 2.6 7.0 0.00 0.03 0.00 82 1022.0
20181018044938 38 255 1.7 7.0 0.00 0.03 0.00 81 1022.0
20181018044439 38 298 0.9 5.2 0.00 0.03 0.00 83 1021.7
20181018043932 38 273 0.9 10.4 0.00 0.03 0.00 81 1021.7
20181018043433 38 298 0.9 10.4 0.00 0.03 0.00 82 1021.7
20181018042929 39 309 0.9 9.6 0.00 0.03 0.00 82 1021.7
20181018042415 39 236 1.7 9.6 0.00 0.03 0.00 80 1021.7
20181018041916 39 250 1.7 9.6 0.00 0.03 0.00 84 1021.7
20181018041414 39 297 1.7 9.6 0.00 0.03 0.00 85 1021.6
20181018040908 39 271 0.9 4.3 0.00 0.03 0.00 83 1021.6
20181018040336 39 273 0.9 7.8 0.00 0.03 0.00 83 1021.7
20181018035838 39 247 0.9 7.8 0.00 0.03 0.03 83 1021.6
20181018035336 40 257 2.6 7.8 0.00 0.03 0.03 83 1021.6
20181018034831 40 254 2.6 7.8 0.00 0.03 0.03 80 1021.6
20181018034330 40 217 1.7 7.0 0.00 0.03 0.03 82 1021.3
20181018033829 41 257 2.6 15.6 0.00 0.03 0.03 82 1021.3
20181018033327 42 309 2.6 15.6 0.00 0.03 0.03 79 1021.3
20181018032826 42 288 0.9 4.3 0.00 0.03 0.03 77 1020.7
20181018032328 42 288 0.0 2.6 0.00 0.03 0.03 77 1020.7
20181018031816 41 294 0.0 1.7 0.00 0.03 0.03 76 1020.7